938  
ASUS44 KMAF 142201  
RWRMAF  
MIDLAND AREA WEATHER ROUNDUP  
NATIONAL WEATHER SERVICE MIDLAND TX  
500 PM CDT TUE AUG 14 2018  
   
..IN SOUTHWEST TEXAS AND SOUTHEAST NEW MEXICO
 
 
 
CITY SKY/WX TMP DP RH WIND PRES REMARKS
 
ALPINE SUNNY 89 48 23 E3 30.06F  
ANDREWS FAIR 93 58 30 W6 29.94F  
ARTESIA SUNNY 95 54 24 CALM 29.91F  
BIG SPRING SUNNY 89 64 42 S9 29.95F  
CARLSBAD SUNNY 98 55 23 NE9 29.87F  
DRYDEN NOT AVBL  
FORT STOCKTON SUNNY 98 54 22 E7 29.89F  
GUAD PASS SUNNY 91 46 21 SW10 30.08F  
HOBBS MOSUNNY 93 52 24 VRB6 29.93F  
LAMESA FAIR 93 61 33 S6G17 29.93F  
MARFA N/A 88 50 27 SE6 30.05  
MIDLAND AIRPK N/A 97 63 32 S7 29.93F  
MIDLAND INTL SUNNY 93 63 36 SE14 29.92F  
ODESSA SUNNY 93 57 29 SE9G16 29.93F  
PECOS MOSUNNY 100 54 21 E9 29.86F  
PRESIDIO FAIR 94 59 30 SW12 29.92F  
SEMINOLE SUNNY 92 58 31 S8 29.95F  
SNYDER PTSUNNY 90 66 45 SE13 29.93S  
WINK SUNNY 100 56 23 E10 29.86F  

   
..OTHER STATIONS IN TEXAS
 
 
 
CITY SKY/WX TMP DP RH WIND PRES REMARKS
 
ABILENE MOSUNNY 93 49 22 S15G21 29.92F  
AMARILLO SUNNY 95 53 24 SW16G22 29.93F  
AUSTIN CLOUDY 96 67 38 S12 29.90F HX 100  
BROWNSVILLE FAIR 94 73 50 SE20G25 29.90F HX 103  
CORPUS CHRISTI PTSUNNY 93 71 48 SE17G24 29.91F HX 100  
DALLAS FTW CLOUDY 88 68 51 S14 29.91F  
DEL RIO MOSUNNY 93 70 46 SE12 29.86F  
EL PASO MOSUNNY 96 42 15 VRB7 29.93F  
HOUSTON INT PTSUNNY 92 76 59 SE15 29.95F HX 104  
LUBBOCK MOSUNNY 92 59 33 SE15 29.94F  
SAN ANGELO SUNNY 92 65 40 S18 29.91F  
SAN ANTONIO MOSUNNY 97 65 34 SE12 29.91F  
WACO PTSUNNY 96 63 33 S18 29.91F  
WICHITA FALLS CLOUDY 75 73 93 SW9 29.86F  

   
..OTHER LOCATIONS IN NEW MEXICO
 
 
 
CITY SKY/WX TMP DP RH WIND PRES REMARKS
 
ALAMOGORDO MOSUNNY 95 48 20 S9 29.96F  
ALBUQUERQUE MOSUNNY 90 40 17 SW6 30.02F  
CANNON AFB SUNNY 89 59 36 CALM 29.99F  
CLOVIS SUNNY 90 56 31 VRB3 29.99F  
HOLLOMAN AFB MOSUNNY 101 44 14 CALM 29.97F  
ROSWELL SUNNY 97 52 21 E6 29.91F  
RUIDOSO LGT RAIN 68 52 56 S21 30.20F  
SANTA FE SUNNY 88 38 17 MISG 30.10F  
TRUTH OR CONSE SUNNY 96 39 13 S5 29.98F  
TUCUMCARI SUNNY 94 55 26 MISG 29.94F  

 
 
 
CLICK HERE TO GO TO PREVIOUS BULLETINS.

The Nexlab TX Page
The Nexlab NM Page Main Text Page